EW4486 Weather Reports


Display with metric or nautical units.
time (UTC)temp
F
wind
direction
speed
MPH
gust
MPH
rain 1hr
in
rain 24hr
in
rain mn
in
humidity
%
barometer
mb
20260504081512 45 248 1.0 6.0 0.00 0.00 0.00 55 1017.9
20260504044545 48 313 0.0 5.0 0.00 0.00 0.00 33 1019.1
20260504043053 48 248 2.0 6.0 0.00 0.00 0.00 31 1019.1
20260504041545 48 244 1.0 6.0 0.00 0.00 0.00 31 1019.1
20260504040044 48 248 3.0 8.0 0.00 0.00 0.00 30 1019.2
20260504034547 49 249 3.0 12.0 0.00 0.00 0.00 28 1019.2
20260504033040 48 268 3.0 7.0 0.00 0.00 0.00 28 1019.2
20260504031542 48 248 2.0 10.0 0.00 0.00 0.00 31 1019.2
20260504030038 48 237 3.0 7.0 0.00 0.00 0.00 29 1019.3
20260504024542 47 252 3.0 10.0 0.00 0.00 0.00 30 1019.6
20260504023037 48 327 1.0 8.0 0.00 0.00 0.00 33 1019.5
20260504021539 48 260 4.0 12.0 0.00 0.00 0.00 28 1019.4
20260504020041 48 286 4.0 10.0 0.00 0.00 0.00 28 1019.2
20260504014538 48 257 2.0 12.0 0.00 0.00 0.00 31 1019.0
20260504013047 48 242 3.0 8.0 0.00 0.00 0.00 31 1018.9
20260504011534 48 273 3.0 9.0 0.00 0.00 0.00 30 1018.8
20260504010037 48 261 4.0 9.0 0.00 0.00 0.00 28 1018.8
20260504004533 49 240 4.0 8.0 0.00 0.00 0.00 28 1018.8
20260504003032 49 254 3.0 10.0 0.00 0.00 0.00 28 1018.7
20260504001537 50 225 2.0 6.0 0.00 0.00 0.00 27 1018.7
20260504000031 51 245 3.0 12.0 0.00 0.00 0.00 25 1018.6
20260503234531 52 193 4.0 10.0 0.00 0.00 0.00 24 1018.5
20260503233031 52 232 3.0 9.0 0.00 0.00 0.00 23 1018.4
20260503231531 53 247 3.0 12.0 0.00 0.00 0.00 22 1018.3
20260503230039 54 230 5.0 9.0 0.00 0.00 0.00 21 1018.4
20260503224528 54 239 4.0 10.0 0.00 0.00 0.00 26 1018.5
20260503223027 54 53 2.0 11.0 0.00 0.00 0.00 25 1018.8
20260503221530 55 303 5.0 11.0 0.00 0.00 0.00 25 1018.7
20260503220025 55 288 2.0 11.0 0.00 0.00 0.00 26 1018.6
20260503214536 55 244 4.0 10.0 0.00 0.00 0.00 25 1018.9
20260503213025 56 265 5.0 12.0 0.00 0.00 0.00 23 1019.1
20260503211524 56 255 5.0 12.0 0.00 0.00 0.00 24 1019.1
20260503210023 56 232 5.0 12.0 0.00 0.00 0.00 23 1019.1
20260503204523 55 300 6.0 14.0 0.00 0.00 0.00 22 1019.2
20260503203032 56 267 5.0 13.0 0.00 0.00 0.00 25 1019.1
20260503201522 55 284 3.0 11.0 0.00 0.00 0.00 25 1019.6
20260503200023 56 226 5.0 11.0 0.00 0.00 0.00 22 1019.5
20260503194520 55 226 6.0 18.0 0.00 0.00 0.00 26 1019.7
20260503193034 55 355 3.0 13.0 0.00 0.00 0.00 30 1019.7
20260503191533 54 239 4.0 15.0 0.00 0.00 0.00 23 1019.9
20260503190025 54 224 4.0 12.0 0.00 0.00 0.00 26 1020.2
20260503184512 53 328 2.0 19.0 0.00 0.00 0.00 26 1020.3
20260503183010 53 241 4.0 12.0 0.00 0.00 0.00 29 1020.4
20260503181508 52 251 7.0 12.0 0.00 0.00 0.00 26 1020.7
20260503180006 52 252 5.0 10.0 0.00 0.00 0.00 28 1020.8
20260503174505 51 329 5.0 11.0 0.00 0.00 0.00 27 1020.9
20260503173005 51 80 5.0 10.0 0.00 0.00 0.00 28 1021.1
20260503171501 50 157 6.0 10.0 0.00 0.00 0.00 29 1021.1